Tracking 29892 objects as of 21-Nov-2024
HD Live streaming from Space Station
objects crossing your sky now

SL-12 DEB

Track SL-12 DEB now!
10-day predictions


NORAD ID: 29317
Int'l Code: 1989-039Y
Perigee: 577.0 km
Apogee: 17,103.3 km
Inclination: 64.9 °
Period: 311.2 minutes
Semi major axis: 15211 km
RCS: 0.105 m2 (medium)
Launch date: May 31, 1989
Source: Commonwealth of Independent States (former USSR) (CIS)
Launch site: TYURATAM MISSILE AND SPACE COMPLEX (TTMTR)

Note: This is SATELLITE DEBRIS
Your satellite tracking list
Your tracking list is empty




NASA's NSSDC Master Catalog

Two Line Element Set (TLE):
1 29317U 89039Y   24325.88058850  .00001246  00000-0  41157-2 0  9992
2 29317  64.9258 144.1093 5432290 123.8966 300.0361  4.62765060159903
Source of the keplerian elements: AFSPC